TimeEET,TemperatureF,Dew PointF,Humidity,Sea Level PressureIn,VisibilityMPH,Wind Direction,Wind SpeedMPH,Gust SpeedMPH,PrecipitationIn,Events,Conditions,WindDirDegrees,DateUTC
12:50 AM,41.0,39.2,93,30.12,6.2,Variable,1.2,-,N/A,,Partly Cloudy,0,2012-11-02 22:50:00
1:50 AM,39.2,39.2,100,30.12,-9999.0,Calm,Calm,-,N/A,,Mist,0,2012-11-02 23:50:00
2:00 AM,39,38,96,,3,Calm,Calm,,,,Mist,,2012-11-03 00:00:00
2:50 AM,37.4,37.4,100,30.12,-9999.0,Variable,2.3,-,N/A,,Mist,0,2012-11-03 00:50:00
3:50 AM,37.4,37.4,100,30.15,2.5,Variable,1.2,-,N/A,,Mist,0,2012-11-03 01:50:00
4:50 AM,35.6,35.6,100,30.15,2.5,Variable,1.2,-,N/A,,Mist,0,2012-11-03 02:50:00
5:50 AM,33.8,33.8,100,30.15,-9999.0,Calm,Calm,-,N/A,,Mist,0,2012-11-03 03:50:00
6:50 AM,37.4,37.4,100,30.15,-9999.0,Calm,Calm,-,N/A,,Mist,0,2012-11-03 04:50:00
7:50 AM,41.0,41.0,100,30.15,3.7,Variable,1.2,-,N/A,,Scattered Clouds,0,2012-11-03 05:50:00
8:00 AM,42,41,97,,6,NNW,1.2,,,,Mist,330,2012-11-03 06:00:00
8:50 AM,48.2,44.6,87,30.15,4.3,WNW,2.3,-,N/A,,Scattered Clouds,300,2012-11-03 06:50:00
9:50 AM,53.6,44.6,72,30.15,6.2,Variable,2.3,-,N/A,,Scattered Clouds,0,2012-11-03 07:50:00
10:50 AM,59.0,44.6,59,30.12,6.2,Variable,1.2,-,N/A,,Mostly Cloudy,0,2012-11-03 08:50:00
11:50 AM,62.6,44.6,52,30.12,6.2,Calm,Calm,-,N/A,,Mostly Cloudy,0,2012-11-03 09:50:00
12:50 PM,62.6,44.6,52,30.09,6.2,SSE,4.6,-,N/A,,Mostly Cloudy,150,2012-11-03 10:50:00
1:50 PM,62.6,42.8,48,30.09,6.2,South,4.6,-,N/A,,Mostly Cloudy,170,2012-11-03 11:50:00
2:00 PM,63,42,35,,6,South,4.6,,,,Partly Cloudy,170,2012-11-03 12:00:00
2:50 PM,64.4,42.8,45,30.09,6.2,SE,4.6,-,N/A,,Mostly Cloudy,140,2012-11-03 12:50:00
3:50 PM,60.8,42.8,52,30.09,6.2,SSE,2.3,-,N/A,,Mostly Cloudy,150,2012-11-03 13:50:00
4:50 PM,57.2,44.6,63,30.09,6.2,Calm,Calm,-,N/A,,Mostly Cloudy,0,2012-11-03 14:50:00
5:50 PM,53.6,44.6,72,30.12,6.2,Calm,Calm,-,N/A,,Mostly Cloudy,0,2012-11-03 15:50:00
6:50 PM,50.0,44.6,82,30.12,6.2,Calm,Calm,-,N/A,,Scattered Clouds,0,2012-11-03 16:50:00
7:50 PM,51.8,44.6,76,30.15,6.2,Calm,Calm,-,N/A,,Scattered Clouds,0,2012-11-03 17:50:00
8:00 PM,52,46,71,,6,Calm,Calm,,,,Partly Cloudy,,2012-11-03 18:00:00
8:50 PM,59.0,48.2,67,30.15,6.2,WNW,10.4,-,N/A,,Mostly Cloudy,300,2012-11-03 18:50:00
9:50 PM,57.2,48.2,72,30.18,6.2,NNW,9.2,-,N/A,,Mostly Cloudy,340,2012-11-03 19:50:00
10:50 PM,53.6,50.0,88,30.18,6.2,WNW,5.8,-,N/A,Rain,Light Rain Showers,300,2012-11-03 20:50:00
11:50 PM,51.8,50.0,94,30.18,6.2,Calm,Calm,-,N/A,Rain,Light Rain Showers,0,2012-11-03 21:50:00